Meteo Giornale » Osservazioni meteo Stati Uniti (USA) » Riverside-March

ore: 12:55 - Osservazioni Meteo Riverside-March
Lat. 33° 54' N Lon. 117° 15' W Alt. 469 metri s.l.m.

sereno

31 °C

Sereno

Temp. 24 Ore

15 °C

33 °C

Nord

18.5 Km/h

Dew point 6 °C

Umidità 20 %

Visibilità  10 Km

Il sole sorge alle ore 06:22

Il sole tramonta alle ore 19:14

Data e Ora Cielo e Fenomeni T °C DP °C Um. % Pres. hPa Vis. km Vento km/h
Oggi h: 12:55 sereno Sereno 31 6 20 1015 10 N 18.5
Oggi h: 11:55 sereno Sereno 29 4 20 1015 10 N 5.5
Oggi h: 10:55 sereno Sereno 27 6 26 1016 10 N 0
Oggi h: 09:55 sereno Sereno 25 9 36 1015 10 N 0
Oggi h: 08:55 sereno Sereno 22 10 46 1015 10 N 0
Oggi h: 07:55 sereno Sereno 20 10 52 1015 10 N 0
Oggi h: 06:55 sereno Sereno 15 11 76 1014 10 N 5.5
Oggi h: 05:55 sereno Sereno 16 12 77 1014 10 N 0
Oggi h: 04:55 sereno Sereno 16 12 77 1014 10 N 0
Oggi h: 03:55 sereno Sereno 16 11 72 1014 10 N 0
Oggi h: 02:55 sereno Sereno 17 11 67 1014 10 N 0
Oggi h: 01:55 sereno Sereno 19 11 59 1014 10 N 0
Oggi h: 00:55 sereno Sereno 20 12 59 1014 10 N 0
Ieri h: 23:55 sereno Sereno 20 11 56 1014 10 O/NO 7.4
Ieri h: 22:55 sereno Sereno 21 11 52 1014 10 N 5.5
Ieri h: 21:55 sereno Sereno 23 10 43 1014 10 N 0
Ieri h: 20:55 sereno Sereno 23 10 43 1013 10 N/NO 7.4
Ieri h: 19:55 sereno Sereno 24 10 41 1012 10 NO 13
Ieri h: 18:55 sereno Sereno 27 12 39 1011 10 NO 13
Ieri h: 17:55 sereno Sereno 30 10 28 1011 10 NO 20.3
Ieri h: 16:55 sereno Sereno 31 8 23 1011 10 NO 25.9
Ieri h: 15:55 sereno Sereno 32 14 33 1011 10 O/NO 20.3
Ieri h: 14:55 sereno Sereno 33 14 31 1012 10 O/NO 18.5
Ieri h: 13:55 sereno Sereno 32 14 33 1012 10 NO 13